This is the latest recevied weather packets stored in our database for station/object DG1ABU-11. If no packets are shown the sender has not sent any weather packets the latest 10 day(s).
| Time | Temp. | Humidity | Pressure | Rain* | Wind** | Luminosity | Snow |
|---|---|---|---|---|---|---|---|
| 1777763841 | 17.78° C | 34% | 1015.2 hPa | - | - | - | - |
| 1777762941 | 18.33° C | 34% | 1015.2 hPa | - | - | - | - |
| 1777762041 | 18.33° C | 34% | 1015.5 hPa | - | - | - | - |
| 1777761141 | 18.89° C | 33% | 1015.4 hPa | - | - | - | - |
| 1777760241 | 19.44° C | 33% | 1015.4 hPa | - | - | - | - |
| 1777759341 | 20° C | 32% | 1015.4 hPa | - | - | - | - |
| 1777758441 | 20° C | 31% | 1015.5 hPa | - | - | - | - |
| 1777757541 | 20.56° C | 31% | 1015.6 hPa | - | - | - | - |
| 1777756641 | 21.11° C | 31% | 1015.8 hPa | - | - | - | - |
| 1777755740 | 21.67° C | 30% | 1015.7 hPa | - | - | - | - |
| 1777754840 | 22.22° C | 30% | 1015.8 hPa | - | - | - | - |
| 1777753940 | 22.78° C | 30% | 1015.9 hPa | - | - | - | - |
| 1777753040 | 22.78° C | 29% | 1015.8 hPa | - | - | - | - |
| 1777752140 | 23.89° C | 28% | 1015.9 hPa | - | - | - | - |
| 1777751240 | 24.44° C | 28% | 1016.1 hPa | - | - | - | - |
| 1777750340 | 25° C | 27% | 1016 hPa | - | - | - | - |
| 1777749440 | 25.56° C | 27% | 1015.9 hPa | - | - | - | - |
| 1777748540 | 26.11° C | 26% | 1015.9 hPa | - | - | - | - |
| 1777747640 | 26.67° C | 25% | 1016 hPa | - | - | - | - |
| 1777746740 | 27.78° C | 25% | 1015.8 hPa | - | - | - | - |
| 1777745840 | 28.33° C | 24% | 1015.7 hPa | - | - | - | - |
| 1777744940 | 28.89° C | 23% | 1015.8 hPa | - | - | - | - |
| 1777744040 | 29.44° C | 22% | 1016 hPa | - | - | - | - |
| 1777743140 | 30° C | 21% | 1015.9 hPa | - | - | - | - |
| 1777742239 | 30.56° C | 20% | 1016.1 hPa | - | - | - | - |
* Rain since midnight (hover to see other rain measurements)
** Current wind speed in m/s (hover to see current wind gust speed)